period_start,C,m1,H,J0,J1,J2,J3,J4,J5,JA,JB,JC,JD,JJ,JK,JN,#
2018-03-09 00:00:33,0.08,1.46,0.00,14.97,18.39,21.89,14.52,46.71,1030.84,2059.98,2918.12,2759.50,3124.96,600.06,621.20,13.78,0000 0000 0000 0000 000000
2018-03-09 00:05:34,0.08,1.46,0.00,14.97,18.39,21.85,14.55,46.77,1030.84,2059.98,2916.42,2758.46,3123.78,600.09,621.31,13.83,0000 0000 0000 0000 000000
2018-03-09 00:10:36,0.08,1.46,0.00,14.97,18.38,21.83,14.63,46.80,1030.81,2059.99,2914.65,2757.49,3122.66,600.44,621.66,13.88,0000 0000 0000 0000 000000
2018-03-09 00:15:37,0.08,1.47,0.00,14.97,18.37,21.88,14.54,46.77,1030.79,2059.99,2912.88,2756.48,3121.46,600.07,621.22,13.93,0000 0000 0000 0000 000000
2018-03-09 00:20:39,0.07,1.47,0.00,14.97,18.37,21.81,14.57,46.88,1030.79,2059.99,2911.44,2755.51,3120.25,600.38,621.64,13.98,0000 0000 0000 0000 000000
2018-03-09 00:25:40,0.08,1.48,0.00,14.97,18.36,21.80,14.51,46.75,1030.78,2060.01,2909.85,2754.58,3119.02,599.92,621.06,14.03,0000 0000 0000 0000 000000
2018-03-09 00:30:41,0.08,1.48,0.00,14.99,18.36,21.80,14.57,46.83,1030.78,2060.01,2908.33,2753.59,3117.80,599.91,621.05,14.08,0000 0000 0000 0000 000000
2018-03-09 00:35:42,0.08,1.49,0.00,14.99,18.36,21.76,14.55,46.85,1030.78,2060.01,2906.79,2752.65,3116.58,599.98,621.04,14.13,0000 0000 0000 0000 000000
2018-03-09 00:40:43,0.07,1.49,0.00,15.00,18.36,21.79,14.50,46.79,1030.78,2060.02,2905.36,2751.72,3115.28,599.90,621.01,14.18,0000 0000 0000 0000 000000
2018-03-09 00:45:45,0.08,1.49,0.00,15.00,18.37,21.78,14.51,46.92,1030.78,2060.01,2903.71,2750.75,3113.95,599.90,621.13,14.23,0000 0000 0000 0000 000000
2018-03-09 00:50:46,0.08,1.50,0.00,15.00,18.37,21.79,14.55,46.86,1030.78,2060.01,2902.07,2749.79,3112.68,600.14,621.27,14.28,0000 0000 0000 0000 000000
2018-03-09 00:55:47,0.08,1.50,0.00,15.02,18.37,21.77,14.49,46.76,1030.80,2060.00,2900.49,2748.75,3111.47,600.02,621.09,14.33,0000 0000 0000 0000 000000
2018-03-09 01:00:48,0.07,1.51,0.00,15.02,18.37,21.76,14.49,46.79,1030.78,2060.00,2899.03,2747.74,3110.09,600.14,621.10,14.38,0000 0000 0000 0000 000000
2018-03-09 01:05:50,0.09,1.51,0.00,15.04,18.37,21.72,14.37,46.74,1030.78,2060.00,2897.49,2746.71,3108.82,599.43,620.44,14.43,0000 0000 0000 0000 000000
2018-03-09 01:10:51,0.08,1.52,0.00,15.06,18.37,21.75,14.52,46.76,1030.78,2060.01,2895.93,2745.69,3107.62,600.19,621.17,14.48,0000 0000 0000 0000 000000
2018-03-09 01:15:52,0.08,1.52,0.00,15.07,18.38,21.79,14.56,46.75,1030.78,2060.00,2894.24,2744.67,3106.36,600.29,621.31,14.53,0000 0000 0000 0000 000000
2018-03-09 01:20:53,0.09,1.52,0.00,15.10,18.39,21.74,14.63,46.83,1030.78,2060.00,2892.57,2743.65,3105.12,600.63,621.67,14.58,0000 0000 0000 0000 000000
2018-03-09 01:25:55,0.08,1.53,0.00,15.13,18.39,21.75,14.55,46.63,1030.78,2060.01,2890.98,2742.55,3103.73,600.06,620.98,14.63,0000 0000 0000 0000 000000
2018-03-09 01:30:56,0.09,1.53,0.00,15.14,18.39,21.73,14.46,46.61,1030.78,2060.00,2889.33,2741.47,3102.39,599.90,620.70,14.68,0000 0000 0000 0000 000000
2018-03-09 01:35:58,0.09,1.54,0.00,15.17,18.39,21.72,14.51,46.68,1030.78,2060.00,2887.59,2740.28,3100.88,600.01,620.76,14.73,0000 0000 0000 0000 000000
2018-03-09 01:40:59,0.09,1.54,0.00,15.18,18.41,21.74,14.58,46.72,1030.78,2060.00,2885.66,2739.19,3099.66,600.38,621.11,14.78,0000 0000 0000 0000 000000
2018-03-09 01:46:00,0.08,1.55,0.00,15.21,18.42,21.76,14.56,46.87,1030.78,2060.00,2883.93,2738.05,3098.41,600.02,620.66,14.83,0000 0000 0000 0000 000000
2018-03-09 01:51:01,0.09,1.55,0.00,15.23,18.42,21.77,14.48,47.10,1030.78,2060.00,2882.32,2736.94,3097.00,600.26,620.80,14.88,0000 0000 0000 0000 000000
2018-03-09 01:56:03,0.08,1.56,0.00,15.25,18.44,21.75,14.54,47.07,1030.78,2060.00,2880.82,2735.88,3095.63,600.09,620.68,14.93,0000 0000 0000 0000 000000
2018-03-09 02:01:04,0.09,1.56,0.00,15.27,18.44,21.80,14.49,47.02,1030.78,2059.99,2879.12,2734.78,3094.38,599.95,620.56,14.98,0000 0000 0000 0000 000000
2018-03-09 02:06:05,0.10,1.57,0.00,15.29,18.47,21.80,14.47,46.98,1030.78,2059.98,2877.42,2733.56,3092.83,599.93,620.31,15.03,0000 0000 0000 0000 000000
2018-03-09 02:11:06,0.10,1.57,0.00,15.32,18.47,21.79,14.48,46.92,1030.78,2059.98,2875.29,2732.29,3091.26,600.17,620.61,15.08,0000 0000 0000 0000 000000
2018-03-09 02:16:08,0.12,1.58,0.00,15.34,18.49,21.77,14.52,46.90,1030.78,2059.98,2873.05,2730.82,3089.51,600.09,620.48,15.13,0000 0000 0000 0000 000000
2018-03-09 02:21:09,0.14,1.59,0.00,15.37,18.51,21.81,14.59,46.97,1030.78,2059.97,2870.39,2729.20,3087.54,600.41,620.68,15.18,0000 0000 0000 0000 000000
2018-03-09 02:26:10,0.15,1.59,0.00,15.39,18.53,21.81,14.56,46.88,1030.78,2059.96,2867.49,2727.37,3085.28,600.20,620.49,15.23,0000 0000 0000 0000 000000
2018-03-09 02:31:11,0.11,1.60,0.00,15.42,18.54,21.85,14.48,46.92,1030.78,2059.72,2864.88,2725.69,3083.19,599.75,619.92,15.28,0000 0000 0000 0000 000000
2018-03-09 02:36:13,0.09,1.60,0.00,15.45,18.57,21.83,14.46,46.80,1030.78,2059.21,2862.16,2724.02,3081.25,599.63,619.76,15.33,0000 0000 0000 0000 000000
2018-03-09 02:41:14,0.23,1.61,0.00,15.48,18.58,21.84,14.45,46.83,1030.78,2059.05,2857.93,2721.38,3078.29,599.74,619.84,15.39,0000 0000 0000 0000 000000
2018-03-09 02:46:16,0.13,1.62,0.00,15.52,18.60,21.87,14.64,46.97,1030.78,2059.04,2854.79,2719.48,3076.04,600.30,620.31,15.44,0000 0000 0000 0000 000000
2018-03-09 02:51:17,0.11,1.63,0.00,15.55,18.63,21.88,14.52,47.00,1030.78,2059.02,2852.62,2717.98,3074.36,600.02,619.91,15.49,0000 0000 0000 0000 000000
2018-03-09 02:56:18,0.14,1.64,0.00,15.60,18.64,21.91,14.49,46.83,1030.78,2059.00,2850.21,2716.37,3072.31,600.01,619.77,15.54,0000 0000 0000 0000 000000
2018-03-09 03:01:20,0.10,1.64,0.00,15.63,18.67,21.91,14.42,46.83,1030.78,2059.00,2848.03,2714.93,3070.55,600.18,620.09,15.59,0000 0000 0000 0000 000000
2018-03-09 03:06:21,0.10,1.65,0.00,15.66,18.69,21.94,14.57,46.81,1030.78,2059.00,2846.25,2713.76,3069.05,600.18,619.88,15.64,0000 0000 0000 0000 000000
2018-03-09 03:11:22,0.10,1.65,0.00,15.69,18.72,21.93,14.47,46.78,1030.78,2058.98,2844.53,2712.61,3067.68,599.98,619.65,15.69,0000 0000 0000 0000 000000
2018-03-09 03:16:23,0.09,1.66,0.00,15.73,18.74,21.98,14.41,46.82,1030.78,2058.98,2842.55,2711.40,3066.24,600.05,619.49,15.74,0000 0000 0000 0000 000000
2018-03-09 03:21:25,0.10,1.66,0.00,15.76,18.77,22.00,14.51,46.90,1030.78,2058.96,2840.63,2710.11,3064.67,600.02,619.46,15.79,0000 0000 0000 0000 000000
2018-03-09 03:26:26,0.10,1.67,0.00,15.80,18.79,22.02,14.44,46.71,1030.78,2058.84,2838.51,2708.74,3063.09,600.08,619.48,15.84,0000 0000 0000 0000 000000
2018-03-09 03:31:27,0.07,1.67,0.00,15.84,18.82,22.06,14.52,46.77,1030.78,2058.53,2836.24,2707.40,3061.45,600.02,619.31,15.89,0000 0000 0000 0000 000000
2018-03-09 03:36:29,0.10,1.68,0.00,15.87,18.85,22.07,14.55,46.78,1030.78,2058.15,2834.08,2705.89,3059.61,600.18,619.43,15.94,0000 0000 0000 0000 000000
2018-03-09 03:41:30,0.12,1.68,0.00,15.90,18.88,22.09,14.42,46.74,1030.78,2058.04,2831.53,2704.32,3057.76,599.89,619.06,15.99,0000 0000 0000 0000 000000
2018-03-09 03:46:31,0.14,1.69,0.00,15.94,18.91,22.11,14.51,46.79,1030.78,2058.02,2829.00,2702.68,3055.87,600.07,619.18,16.04,0000 0000 0000 0000 000000
2018-03-09 03:51:33,0.14,1.70,0.00,15.98,18.93,22.13,14.47,47.13,1030.78,2058.01,2826.35,2700.98,3053.89,599.91,618.92,16.09,0000 0000 0000 0000 000000
2018-03-09 03:56:34,0.14,1.70,0.00,16.00,18.96,22.16,14.48,47.08,1030.78,2058.00,2823.63,2699.25,3051.86,599.98,618.85,16.14,0000 0000 0000 0000 000000
2018-03-09 04:01:35,0.15,1.71,0.00,16.04,18.99,22.19,14.45,47.08,1030.78,2058.00,2820.66,2697.42,3049.72,600.16,619.16,16.19,0000 0000 0000 0000 000000
2018-03-09 04:06:36,0.13,1.72,0.00,16.08,19.02,22.23,14.44,46.99,1030.78,2058.00,2818.33,2695.74,3047.62,599.91,618.66,16.24,0000 0000 0000 0000 000000
2018-03-09 04:11:38,0.11,1.72,0.00,16.11,19.05,22.25,14.43,46.80,1030.78,2057.94,2816.26,2694.34,3045.80,599.83,618.56,16.29,0000 0000 0000 0000 000000
2018-03-09 04:16:39,0.13,1.73,0.00,16.14,19.08,22.30,14.44,46.79,1030.78,2057.76,2813.69,2692.68,3043.95,599.90,618.44,16.34,0000 0000 0000 0000 000000
2018-03-09 04:21:40,0.13,1.74,0.00,16.18,19.11,22.32,14.48,46.77,1030.78,2057.51,2810.66,2690.81,3041.81,600.41,619.06,16.39,0000 0000 0000 0000 000000
2018-03-09 04:26:41,0.14,1.74,0.00,16.20,19.13,22.35,14.40,46.80,1030.78,2057.31,2807.67,2688.96,3039.80,599.92,618.45,16.44,0000 0000 0000 0000 000000
2018-03-09 04:31:43,0.12,1.75,0.00,16.24,19.17,22.37,14.58,46.98,1030.78,2057.17,2805.07,2687.28,3037.55,600.18,618.65,16.49,0000 0000 0000 0000 000000
2018-03-09 04:36:44,0.16,1.76,0.00,16.28,19.20,22.41,14.40,46.87,1030.78,2057.02,2802.18,2685.36,3035.12,599.77,618.12,16.54,0000 0000 0000 0000 000000
2018-03-09 04:41:45,0.14,1.77,0.00,16.31,19.23,22.43,14.43,46.88,1030.78,2057.00,2799.59,2683.65,3033.11,600.13,618.42,16.59,0000 0000 0000 0000 000000
2018-03-09 04:46:46,0.16,1.77,0.00,16.34,19.26,22.46,14.46,46.90,1030.78,2057.00,2796.73,2681.84,3031.00,600.09,618.34,16.64,0000 0000 0000 0000 000000
2018-03-09 04:51:48,0.19,1.78,0.00,16.36,19.28,22.49,14.40,46.91,1030.78,2056.99,2793.43,2679.70,3028.48,599.92,618.12,16.69,0000 0000 0000 0000 000000
2018-03-09 04:56:49,0.21,1.79,0.00,16.39,19.31,22.53,14.41,46.94,1030.78,2056.96,2789.39,2677.21,3025.60,599.94,618.08,16.74,0000 0000 0000 0000 000000
2018-03-09 05:01:50,0.15,1.80,0.00,16.41,19.34,22.56,14.54,46.88,1030.78,2056.84,2785.97,2675.11,3023.23,600.08,618.17,16.79,0000 0000 0000 0000 000000
2018-03-09 05:06:51,0.11,1.81,0.00,16.45,19.37,22.59,14.50,46.88,1030.78,2056.41,2783.04,2673.23,3020.98,600.03,618.04,16.84,0000 0000 0000 0000 000000
2018-03-09 05:11:53,0.14,1.81,0.00,16.48,19.40,22.62,14.47,46.91,1030.78,2056.08,2779.98,2671.33,3018.80,600.13,618.16,16.89,0000 0000 0000 0000 000000
2018-03-09 05:16:54,0.15,1.82,0.00,16.51,19.43,22.65,14.46,46.98,1030.78,2056.06,2777.26,2669.63,3016.78,600.18,618.15,16.94,0000 0000 0000 0000 000000
2018-03-09 05:21:55,0.17,1.83,0.00,16.54,19.46,22.68,14.44,46.97,1030.78,2056.01,2774.23,2667.67,3014.49,600.12,617.98,16.99,0000 0000 0000 0000 000000
2018-03-09 05:26:56,0.20,1.84,0.00,16.56,19.48,22.72,14.43,46.98,1030.78,2056.00,2770.71,2665.42,3011.87,599.95,617.71,17.04,0000 0000 0000 0000 000000
2018-03-09 05:31:58,0.19,1.85,0.00,16.58,19.51,22.75,14.39,46.84,1030.78,2056.00,2767.16,2663.10,3009.11,600.13,617.88,17.09,0000 0000 0000 0000 000000
2018-03-09 05:36:59,0.14,1.86,0.00,16.60,19.54,22.76,14.42,46.83,1030.78,2055.99,2764.33,2661.32,3007.09,600.23,617.91,17.14,0000 0000 0000 0000 000000
2018-03-09 05:42:00,0.13,1.87,0.00,16.63,19.57,22.78,14.40,46.77,1030.78,2055.97,2761.95,2659.68,3005.14,599.84,617.53,17.19,0000 0000 0000 0000 000000
2018-03-09 05:47:01,0.11,1.87,0.00,16.65,19.60,22.81,14.37,46.86,1030.78,2055.81,2759.50,2658.14,3003.35,599.72,617.27,17.24,0000 0000 0000 0000 000000
2018-03-09 05:52:03,0.11,1.88,0.00,16.68,19.63,22.84,14.42,46.81,1030.78,2055.41,2756.70,2656.33,3001.16,599.76,617.21,17.29,0000 0000 0000 0000 000000
2018-03-09 05:57:04,0.17,1.89,0.00,16.69,19.66,22.87,14.40,46.76,1030.78,2055.09,2753.53,2654.22,2998.77,599.94,617.34,17.34,0000 0000 0000 0000 000000
2018-03-09 06:02:05,0.17,1.89,0.00,16.71,19.69,22.89,14.41,46.74,1030.78,2055.04,2750.33,2652.07,2996.28,599.90,617.35,17.39,0000 0000 0000 0000 000000
2018-03-09 06:07:06,0.15,1.90,0.00,16.74,19.72,22.91,14.39,46.75,1030.78,2055.01,2747.72,2650.23,2994.09,599.91,617.38,17.44,0000 0000 0000 0000 000000
2018-03-09 06:12:07,0.17,1.91,0.00,16.75,19.74,22.95,14.40,46.67,1030.78,2055.00,2744.61,2648.26,2991.76,600.02,617.43,17.49,0000 0000 0000 0000 000000
2018-03-09 06:17:08,0.14,1.92,0.00,16.77,19.77,22.98,14.40,46.73,1030.78,2055.00,2742.00,2646.55,2989.79,599.72,617.05,17.54,0000 0000 0000 0000 000000
2018-03-09 06:22:10,0.12,1.93,0.00,16.78,19.79,22.99,14.35,46.78,1030.78,2054.99,2739.79,2645.04,2988.01,599.64,616.92,17.59,0000 0000 0000 0000 000000
2018-03-09 06:27:11,0.12,1.93,0.00,16.79,19.82,23.02,14.35,46.87,1030.78,2054.98,2737.75,2643.62,2986.41,599.83,617.02,17.64,0000 0000 0000 0000 000000
2018-03-09 06:32:12,0.11,1.94,0.00,16.82,19.84,23.05,14.43,46.92,1030.78,2054.97,2735.77,2642.29,2984.68,600.14,617.34,17.69,0000 0000 0000 0000 000000
2018-03-09 06:37:14,0.12,1.94,0.00,16.83,19.87,23.08,14.30,46.88,1030.78,2054.95,2733.75,2640.87,2982.98,599.74,617.11,17.74,0000 0000 0000 0000 000000
2018-03-09 06:42:15,0.10,1.95,0.00,16.84,19.88,23.11,14.39,46.90,1030.78,2054.65,2731.36,2639.24,2981.00,600.08,617.11,17.79,0000 0000 0000 0000 000000
2018-03-09 06:47:16,0.12,1.96,0.00,16.86,19.90,23.14,14.36,46.80,1030.78,2054.26,2728.55,2637.46,2978.80,599.77,616.89,17.84,0000 0000 0000 0000 000000
2018-03-09 06:52:18,0.13,1.96,0.00,16.88,19.92,23.16,14.33,46.88,1030.78,2054.06,2725.84,2635.77,2976.80,599.71,616.80,17.89,0000 0000 0000 0000 000000
2018-03-09 06:57:19,0.13,1.97,0.00,16.89,19.94,23.17,14.33,46.85,1030.78,2054.03,2723.38,2634.17,2974.92,599.98,616.89,17.94,0000 0000 0000 0000 000000
2018-03-09 07:02:21,0.13,1.98,0.00,16.90,19.96,23.19,14.59,46.89,1030.78,2054.00,2721.13,2632.67,2973.17,600.47,617.53,17.99,0000 0000 0000 0000 000000
2018-03-09 07:07:22,0.11,1.98,0.00,16.92,19.98,23.22,14.43,46.79,1030.78,2054.00,2719.07,2631.42,2971.59,599.91,617.03,18.04,0000 0000 0000 0000 000000
2018-03-09 07:12:23,0.12,1.99,0.00,16.93,20.00,23.23,14.49,46.77,1030.78,2054.00,2717.08,2630.01,2969.90,599.93,616.81,18.09,0000 0000 0000 0000 000000
2018-03-09 07:17:24,0.12,1.99,0.00,16.95,20.02,23.26,14.42,46.70,1030.78,2054.00,2714.77,2628.59,2968.22,600.15,617.11,18.14,0000 0000 0000 0000 000000
2018-03-09 07:22:25,0.12,2.00,0.00,16.97,20.04,23.28,14.38,46.75,1030.78,2053.99,2712.35,2627.06,2966.47,600.14,617.05,18.19,0000 0000 0000 0000 000000
2018-03-09 07:27:27,0.13,2.01,0.00,16.97,20.05,23.29,14.44,46.81,1030.78,2053.96,2710.13,2625.69,2964.85,600.27,617.13,18.24,0000 0000 0000 0000 000000
2018-03-09 07:32:28,0.10,2.01,0.00,16.99,20.07,23.31,14.43,46.73,1030.78,2053.94,2708.30,2624.46,2963.41,599.95,616.91,18.29,0000 0000 0000 0000 000000
2018-03-09 07:37:30,0.11,2.02,0.00,17.00,20.08,23.34,14.57,46.80,1030.78,2053.96,2706.27,2623.19,2961.78,600.24,617.01,18.34,0000 0000 0000 0000 000000
2018-03-09 07:42:31,0.13,2.02,0.00,17.01,20.09,23.35,14.40,46.72,1030.78,2053.87,2703.95,2621.76,2959.93,600.00,616.76,18.39,0000 0000 0000 0000 000000
2018-03-09 07:47:32,0.08,2.03,0.00,17.02,20.11,23.38,14.41,46.75,1030.78,2053.62,2701.40,2620.27,2958.25,600.05,616.86,18.45,0000 0000 0000 0000 000000
2018-03-09 07:52:33,0.15,2.04,0.00,17.04,20.12,23.39,14.47,46.68,1030.78,2053.51,2699.11,2618.71,2956.45,599.92,616.69,18.49,0000 0000 0000 0000 000000
2018-03-09 07:57:34,0.08,2.04,0.00,17.04,20.14,23.41,14.40,47.01,1030.78,2053.29,2697.12,2617.36,2954.70,599.96,616.72,18.55,0000 0000 0000 0000 000000
2018-03-09 08:02:36,0.10,2.05,0.00,17.06,20.14,23.42,14.31,46.77,1030.78,2053.18,2695.05,2615.93,2953.07,599.72,616.41,18.60,0000 0000 0000 0000 000000
2018-03-09 08:07:37,0.12,2.05,0.00,17.07,20.16,23.45,14.46,46.71,1030.78,2053.07,2693.02,2614.59,2951.49,600.27,616.93,18.65,0000 0000 0000 0000 000000
2018-03-09 08:12:38,0.12,2.06,0.00,17.09,20.17,23.44,14.44,46.65,1030.78,2053.02,2690.91,2613.14,2949.70,600.12,616.86,18.70,0000 0000 0000 0000 000000
2018-03-09 08:17:39,0.15,2.07,0.00,17.08,20.18,23.48,14.37,46.66,1030.78,2053.03,2688.21,2611.46,2947.68,599.95,616.63,18.75,0000 0000 0000 0000 000000
2018-03-09 08:22:41,0.10,2.07,0.00,17.08,20.19,23.49,14.36,46.66,1030.78,2053.01,2686.20,2610.12,2946.03,599.91,616.56,18.80,0000 0000 0000 0000 000000
2018-03-09 08:27:42,0.14,2.08,0.00,17.09,20.20,23.49,14.41,46.60,1030.79,2053.00,2683.94,2608.68,2944.42,599.78,616.47,18.85,0000 0000 0000 0000 000000
2018-03-09 08:32:44,0.12,2.09,0.00,17.07,20.22,23.50,14.45,46.59,1030.78,2053.00,2681.78,2607.29,2942.72,599.94,616.92,18.90,0000 0000 0000 0000 000000
2018-03-09 08:37:45,0.12,2.09,0.00,17.07,20.22,23.53,14.43,46.55,1030.79,2053.00,2679.75,2605.87,2941.09,600.26,616.99,18.95,0000 0000 0000 0000 000000
2018-03-09 08:42:46,0.11,2.10,0.00,17.06,20.23,23.55,14.41,46.51,1030.79,2053.00,2677.81,2604.60,2939.42,600.16,616.88,19.00,0000 0000 0000 0000 000000
2018-03-09 08:47:48,0.11,2.10,0.00,17.06,20.24,23.58,14.37,46.58,1030.78,2052.99,2675.93,2603.27,2937.74,599.73,616.37,19.05,0000 0000 0000 0000 000000
2018-03-09 08:52:49,0.10,2.11,0.00,17.04,20.24,23.58,14.46,46.61,1030.78,2052.99,2673.90,2602.01,2936.45,599.75,616.51,19.10,0000 0000 0000 0000 000000
2018-03-09 08:57:50,0.12,2.12,0.00,17.04,20.24,23.56,14.39,46.61,1030.78,2052.98,2671.72,2600.69,2934.95,599.95,616.70,19.15,0000 0000 0000 0000 000000
2018-03-09 09:02:51,0.11,2.12,0.00,17.02,20.24,23.57,14.40,46.63,1030.78,2052.99,2669.84,2599.45,2933.44,599.89,616.66,19.20,0000 0000 0000 0000 000000
2018-03-09 09:07:53,0.10,2.13,0.00,17.02,20.24,23.62,14.38,46.69,1030.78,2052.97,2668.15,2598.24,2931.99,599.83,616.55,19.25,0000 0000 0000 0000 000000
2018-03-09 09:12:54,0.10,2.13,0.00,17.01,20.24,23.69,14.44,46.75,1030.78,2052.97,2666.33,2597.05,2930.58,600.26,617.05,19.30,0000 0000 0000 0000 000000
2018-03-09 09:17:55,0.10,2.14,0.00,16.99,20.24,23.65,14.39,46.76,1030.78,2052.98,2664.60,2595.91,2929.23,599.76,616.59,19.35,0000 0000 0000 0000 000000
2018-03-09 09:22:57,0.10,2.14,0.00,16.98,20.24,23.65,14.41,46.68,1030.78,2052.97,2662.84,2594.74,2927.85,600.07,616.95,19.40,0000 0000 0000 0000 000000
2018-03-09 09:27:58,0.11,2.15,0.00,16.97,20.24,23.64,14.46,46.67,1030.78,2052.98,2661.08,2593.59,2926.51,600.18,617.04,19.45,0000 0000 0000 0000 000000
2018-03-09 09:32:59,0.09,2.15,0.00,16.97,20.24,23.65,14.44,46.72,1030.78,2052.98,2659.45,2592.57,2925.22,600.06,617.00,19.50,0000 0000 0000 0000 000000
2018-03-09 09:38:01,0.10,2.16,0.00,16.96,20.24,23.64,14.43,46.76,1030.78,2052.98,2657.71,2591.45,2923.89,600.14,617.07,19.55,0000 0000 0000 0000 000000
2018-03-09 09:43:02,0.09,2.16,0.00,16.94,20.24,23.68,14.30,46.89,1030.78,2052.98,2656.08,2590.42,2922.64,599.76,616.77,19.60,0000 0000 0000 0000 000000
2018-03-09 09:48:03,0.09,2.17,0.00,16.92,20.24,23.67,14.43,46.86,1030.78,2052.99,2654.45,2589.35,2921.46,599.74,616.74,19.65,0000 0000 0000 0000 000000
2018-03-09 09:53:05,0.09,2.17,0.00,16.90,20.24,23.65,14.47,47.01,1030.78,2052.98,2652.73,2588.26,2920.22,599.93,617.05,19.70,0000 0000 0000 0000 000000
2018-03-09 09:58:06,0.09,2.18,0.00,16.90,20.24,23.65,14.41,47.10,1030.78,2052.99,2651.20,2587.22,2918.93,599.95,617.02,19.75,0000 0000 0000 0000 000000
2018-03-09 10:03:07,0.11,2.18,0.00,16.89,20.24,23.64,14.51,47.17,1030.77,2052.99,2649.53,2585.98,2917.47,600.18,617.21,19.80,0000 0000 0000 0000 000000
2018-03-09 10:08:08,0.10,2.19,0.00,16.87,20.24,23.68,14.40,47.06,1030.76,2052.98,2647.79,2584.82,2916.01,600.12,617.14,19.85,0000 0000 0000 0000 000000
2018-03-09 10:13:09,0.11,2.19,0.00,16.87,20.24,23.66,14.40,46.98,1030.75,2052.97,2645.97,2583.71,2914.69,600.17,617.25,19.90,0000 0000 0000 0000 000000
2018-03-09 10:18:10,0.10,2.20,0.00,16.86,20.23,23.61,14.48,46.95,1030.72,2052.98,2644.19,2582.55,2913.46,600.07,617.09,19.95,0000 0000 0000 0000 000000
2018-03-09 10:23:12,0.09,2.21,0.00,16.84,20.22,23.64,14.45,47.00,1030.70,2052.99,2642.40,2581.44,2912.28,600.07,617.26,20.00,0000 0000 0000 0000 000000
2018-03-09 10:28:13,0.09,2.21,0.00,16.84,20.22,23.65,14.54,46.98,1030.77,2052.99,2641.25,2580.42,2910.68,600.40,617.54,20.05,0000 0000 0000 0000 000000
2018-03-09 10:33:14,0.09,2.21,0.00,16.83,20.22,23.64,14.41,46.75,1030.76,2052.99,2639.77,2579.40,2909.45,599.61,616.90,20.10,0000 0000 0000 0000 000000
2018-03-09 10:38:15,0.11,2.22,0.00,16.81,20.22,23.64,14.44,46.73,1030.65,2052.99,2637.83,2578.14,2907.98,599.78,616.94,20.15,0000 0000 0000 0000 000000
2018-03-09 10:43:17,0.14,2.23,0.00,16.79,20.20,23.67,14.39,46.75,1030.56,2052.99,2635.55,2576.64,2906.37,599.99,617.13,20.20,0000 0000 0000 0000 000000
2018-03-09 10:48:18,0.11,2.23,0.00,16.78,20.19,23.61,14.52,46.77,1030.62,2052.99,2633.55,2575.21,2904.64,600.19,617.34,20.25,0000 0000 0000 0000 000000
2018-03-09 10:53:19,0.13,2.24,0.00,16.77,20.19,23.64,14.45,46.83,1030.59,2052.99,2631.51,2573.87,2903.14,600.15,617.25,20.30,0000 0000 0000 0000 000000
2018-03-09 10:58:21,0.12,2.25,0.00,16.75,20.19,23.60,14.49,46.88,1030.43,2052.99,2629.42,2572.38,2901.42,600.01,617.18,20.35,0000 0000 0000 0000 000000
2018-03-09 11:03:22,0.14,2.25,0.00,16.74,20.17,23.60,14.46,46.83,1030.36,2052.99,2627.27,2570.85,2899.68,599.89,617.02,20.40,0000 0000 0000 0000 000000
2018-03-09 11:08:23,0.11,2.26,0.00,16.73,20.17,23.62,14.39,46.81,1030.34,2052.99,2625.62,2569.54,2898.02,599.90,616.85,20.45,0000 0000 0000 0000 000000
2018-03-09 11:13:25,0.09,2.26,0.00,16.71,20.17,23.61,14.43,46.77,1030.31,2052.99,2624.08,2568.48,2896.63,600.19,617.37,20.50,0000 0000 0000 0000 000000
2018-03-09 11:18:26,0.10,2.27,0.00,16.69,20.16,23.63,14.46,46.76,1030.32,2052.99,2622.70,2567.25,2894.96,600.01,617.19,20.55,0000 0000 0000 0000 000000
2018-03-09 11:23:27,0.10,2.28,0.00,16.68,20.14,23.59,14.53,46.68,1030.30,2052.99,2621.05,2566.02,2893.54,600.28,617.44,20.60,0000 0000 0000 0000 000000
2018-03-09 11:28:28,0.12,2.28,0.00,16.67,20.14,23.59,14.48,46.68,1030.30,2052.99,2619.19,2564.75,2891.92,600.14,617.37,20.65,0000 0000 0000 0000 000000
2018-03-09 11:33:30,0.11,2.29,0.00,16.64,20.13,23.55,14.50,46.69,1030.29,2052.99,2617.31,2563.54,2890.50,600.27,617.55,20.70,0000 0000 0000 0000 000000
2018-03-09 11:38:31,0.10,2.29,0.00,16.63,20.12,23.55,14.44,46.73,1030.29,2052.99,2615.32,2562.35,2889.28,600.23,617.57,20.75,0000 0000 0000 0000 000000
2018-03-09 11:43:32,0.10,2.30,0.00,16.60,20.10,23.54,14.39,46.69,1030.29,2052.99,2613.38,2561.12,2887.86,599.88,617.23,20.80,0000 0000 0000 0000 000000
2018-03-09 11:48:33,0.11,2.30,0.00,16.59,20.09,23.50,14.41,46.85,1030.29,2052.99,2611.45,2559.96,2886.69,600.01,617.50,20.85,0000 0000 0000 0000 000000
2018-03-09 11:53:35,0.10,2.31,0.00,16.58,20.07,23.55,14.53,46.86,1030.29,2053.01,2609.63,2558.91,2885.36,599.90,617.34,20.90,0000 0000 0000 0000 000000
2018-03-09 11:58:36,0.12,2.31,0.00,16.56,20.06,23.47,14.49,46.83,1030.27,2053.04,2607.87,2557.73,2883.87,600.32,617.81,20.95,0000 0000 0000 0000 000000
2018-03-09 12:03:37,0.11,2.32,0.00,16.53,20.04,23.48,14.55,46.89,1030.29,2053.08,2606.15,2556.54,2882.47,600.24,617.81,21.00,0000 0000 0000 0000 000000
2018-03-09 12:08:39,0.11,2.33,0.00,16.52,20.02,23.49,14.53,46.89,1030.29,2053.19,2604.52,2555.38,2880.98,600.16,617.66,21.05,0000 0000 0000 0000 000000
2018-03-09 12:13:40,0.16,2.33,0.00,16.50,20.01,23.46,14.48,46.87,1030.22,2053.42,2602.40,2553.94,2879.67,599.89,617.47,21.10,0000 0000 0000 0000 000000
2018-03-09 12:18:42,0.14,2.34,0.00,16.49,19.99,23.42,14.34,46.75,1030.23,2053.84,2600.58,2552.69,2878.33,599.76,617.42,21.15,0000 0000 0000 0000 000000
2018-03-09 12:23:43,0.13,2.35,0.00,16.48,19.98,23.48,14.47,46.77,1030.21,2053.95,2598.73,2551.44,2876.73,600.19,617.86,21.20,0000 0000 0000 0000 000000
2018-03-09 12:28:44,0.11,2.35,0.00,16.46,19.97,23.39,14.56,46.83,1030.18,2053.97,2596.74,2550.07,2875.44,600.32,617.87,21.25,0000 0000 0000 0000 000000
2018-03-09 12:33:46,0.10,2.36,0.00,16.44,19.94,23.40,14.53,46.83,1029.99,2053.98,2595.28,2548.88,2874.01,600.04,617.61,21.30,0000 0000 0000 0000 000000
2018-03-09 12:38:47,0.12,2.37,0.00,16.42,19.93,23.37,14.42,46.87,1029.86,2053.99,2593.38,2547.65,2872.72,599.81,617.30,21.35,0000 0000 0000 0000 000000
2018-03-09 12:43:48,0.10,2.37,0.00,16.39,19.92,23.32,14.44,46.79,1029.86,2053.99,2591.95,2546.57,2871.27,599.71,617.20,21.40,0000 0000 0000 0000 000000
2018-03-09 12:48:50,0.09,2.38,0.00,16.39,19.91,23.34,14.48,46.84,1029.89,2053.99,2590.65,2545.48,2869.72,600.20,617.64,21.45,0000 0000 0000 0000 000000
2018-03-09 12:53:51,0.09,2.38,0.00,16.37,19.89,23.35,14.53,46.89,1029.96,2053.98,2589.13,2544.28,2868.34,600.33,618.03,21.50,0000 0000 0000 0000 000000